• în Republica Moldova
  • Lista ţărilor
  • Pe 7 zile
  • Temperatura apei
  • Hartă satelitară
  • Meteo pe hartă
  • Widget-uri
  • user-avatar
    Intrare

    Meteo pe oră la Canberra

    Astăzi, 21 Iulie, Vineri

    Timp Temperatura Precipitaţii Vânt Presiune Umiditate
    00:00 +1°C° 0 mm 1 m/s 709 mmHg 88%
    01:00 -1°C° 0 mm 2 m/s 710 mmHg 86%
    02:00 -1°C° 0 mm 2 m/s 710 mmHg 86%
    03:00 -1°C° 0 mm 2 m/s 710 mmHg 86%
    04:00 -1°C° 0 mm 2 m/s 710 mmHg 86%
    05:00 -1°C° 0 mm 2 m/s 711 mmHg 87%
    06:00 -1°C° 0 mm 2 m/s 711 mmHg 89%
    07:00 +1°C° 0 mm 1 m/s 711 mmHg 90%
    08:00 +2°C° 0 mm 2 m/s 712 mmHg 80%
    09:00 +5°C° 0 mm 2 m/s 712 mmHg 69%
    10:00 +7°C° 0 mm 2 m/s 713 mmHg 59%
    11:00 +9°C° 0 mm 2 m/s 713 mmHg 53%
    12:00 +10°C° 0 mm 2 m/s 713 mmHg 46%
    13:00 +13°C° 0 mm 1 m/s 712 mmHg 40%
    14:00 +12°C° 0 mm 1 m/s 712 mmHg 41%
    15:00 +12°C° 0 mm 1 m/s 712 mmHg 43%
    16:00 +12°C° 0 mm 1 m/s 712 mmHg 44%
    17:00 +9°C° 0 mm 1 m/s 713 mmHg 54%
    18:00 +7°C° 0 mm 1 m/s 713 mmHg 64%
    19:00 +4°C° 0 mm 1 m/s 713 mmHg 73%
    20:00 +3°C° 0 mm 1 m/s 713 mmHg 75%
    21:00 +3°C° 0 mm 1 m/s 713 mmHg 77%
    22:00 +2°C° 0 mm 1 m/s 713 mmHg 79%
    23:00 +2°C° 0 mm 1 m/s 713 mmHg 79%

    Mâine, 22 Iulie, Sâmbătă

    Timp Temperatura Precipitaţii Vânt Presiune Umiditate
    00:00 +1°C° 0 mm 1 m/s 713 mmHg 80%
    01:00 +1°C° 0 mm 1 m/s 713 mmHg 81%
    02:00 +1°C° 0 mm 1 m/s 713 mmHg 81%
    03:00 +1°C° 0 mm 1 m/s 712 mmHg 81%
    04:00 0°C° 0 mm 1 m/s 712 mmHg 81%
    05:00 0°C° 0 mm 1 m/s 712 mmHg 79%
    06:00 0°C° 0 mm 1 m/s 712 mmHg 77%
    07:00 0°C° 0 mm 1 m/s 712 mmHg 76%
    08:00 +2°C° 0 mm 2 m/s 713 mmHg 64%
    09:00 +5°C° 0 mm 2 m/s 713 mmHg 52%
    10:00 +8°C° 0 mm 3 m/s 713 mmHg 40%
    11:00 +9°C° 0 mm 3 m/s 713 mmHg 38%
    12:00 +11°C° 0 mm 4 m/s 712 mmHg 36%
    13:00 +12°C° 0 mm 4 m/s 711 mmHg 34%
    14:00 +11°C° 0 mm 4 m/s 711 mmHg 38%
    15:00 +11°C° 0 mm 4 m/s 711 mmHg 41%
    16:00 +10°C° 0 mm 4 m/s 710 mmHg 45%
    17:00 +8°C° 0 mm 3 m/s 710 mmHg 53%
    18:00 +5°C° 0 mm 3 m/s 710 mmHg 62%
    19:00 +3°C° 0 mm 3 m/s 711 mmHg 71%
    20:00 +4°C° 0 mm 2 m/s 711 mmHg 71%
    21:00 +4°C° 0 mm 2 m/s 711 mmHg 71%
    22:00 +3°C° 0 mm 2 m/s 711 mmHg 71%
    23:00 +3°C° 0 mm 2 m/s 711 mmHg 70%

    Poimâine, 23 Iulie, Duminică

    Timp Temperatura Precipitaţii Vânt Presiune Umiditate
    00:00 +3°C° 0 mm 2 m/s 710 mmHg 69%
    01:00 +3°C° 0 mm 2 m/s 710 mmHg 68%
    02:00 +3°C° 0 mm 2 m/s 710 mmHg 67%
    03:00 +2°C° 0 mm 3 m/s 709 mmHg 67%
    04:00 +2°C° 0 mm 3 m/s 709 mmHg 66%
    05:00 +2°C° 0 mm 3 m/s 709 mmHg 65%
    06:00 +2°C° 0 mm 3 m/s 709 mmHg 64%
    07:00 +2°C° 0 mm 3 m/s 709 mmHg 63%
    08:00 +4°C° 0 mm 4 m/s 709 mmHg 57%
    09:00 +6°C° 0 mm 5 m/s 709 mmHg 51%
    10:00 +9°C° 0 mm 5 m/s 709 mmHg 44%
    11:00 +10°C° 0 mm 6 m/s 709 mmHg 44%
    12:00 +11°C° 0 mm 7 m/s 708 mmHg 44%
    13:00 +12°C° 0 mm 7 m/s 708 mmHg 44%
    14:00 +12°C° 0 mm 7 m/s 708 mmHg 47%
    15:00 +11°C° 0 mm 7 m/s 707 mmHg 50%
    16:00 +11°C° 0 mm 6 m/s 707 mmHg 54%
    17:00 +10°C° 0 mm 6 m/s 708 mmHg 58%
    18:00 +8°C° 0 mm 5 m/s 708 mmHg 61%
    19:00 +7°C° 0 mm 4 m/s 708 mmHg 65%
    20:00 +7°C° 0 mm 4 m/s 708 mmHg 68%
    21:00 +7°C° 0 mm 4 m/s 708 mmHg 71%
    22:00 +6°C° 0 mm 4 m/s 709 mmHg 74%
    23:00 +6°C° 0 mm 4 m/s 709 mmHg 77%

    24 Iulie, Luni

    Timp Temperatura Precipitaţii Vânt Presiune Umiditate
    00:00 +6°C° 0 mm 4 m/s 708 mmHg 80%
    01:00 +6°C° 0 mm 4 m/s 708 mmHg 83%
    02:00 +6°C° 0 mm 4 m/s 708 mmHg 84%
    03:00 +6°C° 0 mm 4 m/s 709 mmHg 84%
    04:00 +5°C° 0 mm 4 m/s 709 mmHg 85%
    05:00 +5°C° 0 mm 4 m/s 709 mmHg 85%
    06:00 +5°C° 0 mm 3 m/s 710 mmHg 84%
    07:00 +4°C° 0 mm 3 m/s 710 mmHg 84%
    08:00 +6°C° 0 mm 4 m/s 710 mmHg 77%
    09:00 +7°C° 0 mm 4 m/s 711 mmHg 71%
    10:00 +9°C° 0 mm 5 m/s 711 mmHg 64%
    11:00 +10°C° 0 mm 5 m/s 711 mmHg 62%
    12:00 +10°C° 0 mm 5 m/s 711 mmHg 59%
    13:00 +12°C° 0 mm 5 m/s 711 mmHg 56%
    14:00 +10°C° 0 mm 5 m/s 711 mmHg 59%
    15:00 +11°C° 0 mm 4 m/s 711 mmHg 63%
    16:00 +10°C° 0 mm 4 m/s 710 mmHg 66%
    17:00 +9°C° 0 mm 3 m/s 711 mmHg 73%
    18:00 +7°C° 0 mm 2 m/s 711 mmHg 80%
    19:00 +6°C° 0 mm 1 m/s 711 mmHg 88%
    20:00 +6°C° 0 mm 1 m/s 711 mmHg 89%
    21:00 +6°C° 0 mm 1 m/s 711 mmHg 90%
    22:00 +5°C° 0 mm 2 m/s 711 mmHg 91%
    23:00 +5°C° 0 mm 2 m/s 711 mmHg 91%

    25 Iulie, Marţi

    Timp Temperatura Precipitaţii Vânt Presiune Umiditate
    00:00 +5°C° 0 mm 2 m/s 711 mmHg 91%
    01:00 +5°C° 0 mm 2 m/s 711 mmHg 91%
    02:00 +5°C° 0 mm 2 m/s 710 mmHg 92%
    03:00 +5°C° 0 mm 2 m/s 710 mmHg 93%
    04:00 +4°C° 0 mm 2 m/s 710 mmHg 93%
    05:00 +4°C° 0 mm 2 m/s 710 mmHg 94%
    06:00 +4°C° 0 mm 2 m/s 710 mmHg 94%
    07:00 +4°C° 0 mm 2 m/s 710 mmHg 94%
    08:00 +7°C° 0 mm 3 m/s 710 mmHg 83%
    09:00 +8°C° 0 mm 4 m/s 710 mmHg 73%
    10:00 +10°C° 0 mm 5 m/s 710 mmHg 63%
    11:00 +13°C° 0 mm 6 m/s 709 mmHg 58%
    12:00 +14°C° 0 mm 7 m/s 709 mmHg 53%
    13:00 +15°C° 0 mm 7 m/s 708 mmHg 48%
    14:00 +15°C° 0 mm 7 m/s 707 mmHg 48%
    15:00 +15°C° 0 mm 7 m/s 707 mmHg 48%
    16:00 +14°C° 0 mm 7 m/s 707 mmHg 48%
    17:00 +13°C° 0 mm 6 m/s 707 mmHg 52%
    18:00 +11°C° 0 mm 6 m/s 707 mmHg 56%
    19:00 +10°C° 0 mm 6 m/s 707 mmHg 59%
    20:00 +9°C° 0 mm 6 m/s 708 mmHg 63%
    21:00 +9°C° 0 mm 6 m/s 708 mmHg 66%
    22:00 +8°C° 0 mm 6 m/s 708 mmHg 69%
    23:00 +8°C° 0 mm 6 m/s 708 mmHg 71%

    26 Iulie, Miercuri

    Timp Temperatura Precipitaţii Vânt Presiune Umiditate
    00:00 +7°C° 0 mm 6 m/s 708 mmHg 72%
    01:00 +7°C° 0 mm 6 m/s 708 mmHg 74%
    02:00 +5°C° 0 mm 6 m/s 708 mmHg 75%
    03:00 +6°C° 0 mm 5 m/s 708 mmHg 75%
    04:00 +6°C° 0 mm 5 m/s 708 mmHg 76%
    05:00 +5°C° 0 mm 5 m/s 708 mmHg 76%
    06:00 +5°C° 0 mm 5 m/s 709 mmHg 77%
    07:00 +4°C° 0 mm 4 m/s 709 mmHg 77%
    08:00 +6°C° 0 mm 5 m/s 710 mmHg 69%
    09:00 +7°C° 0 mm 5 m/s 710 mmHg 61%
    10:00 +9°C° 0 mm 6 m/s 711 mmHg 53%
    11:00 +9°C° 0 mm 6 m/s 711 mmHg 51%
    12:00 +10°C° 0 mm 6 m/s 711 mmHg 49%
    13:00 +11°C° 0 mm 6 m/s 710 mmHg 47%
    14:00 +10°C° 0 mm 6 m/s 711 mmHg 50%
    15:00 +9°C° 0 mm 5 m/s 711 mmHg 53%
    16:00 +10°C° 0 mm 4 m/s 711 mmHg 56%
    17:00 +7°C° 0 mm 4 m/s 711 mmHg 63%
    18:00 +7°C° 0 mm 3 m/s 712 mmHg 71%
    19:00 +5°C° 0 mm 2 m/s 712 mmHg 78%
    20:00 +5°C° 0 mm 2 m/s 713 mmHg 82%
    21:00 +4°C° 0 mm 2 m/s 713 mmHg 85%
    22:00 +4°C° 0 mm 2 m/s 714 mmHg 88%
    23:00 +3°C° 0 mm 2 m/s 714 mmHg 90%
    Arată mai mult